CZ-3C DEB, 40200

Orbit data source: Space-Track

CZ-3C DEB, 40200 is space debris in HEO originally from a launch on Fri, 24 Feb 2012 UTC launched from the Xichang Space Center, China (XSC). Debris objects in space refer to the collection of defunct objects orbiting the Earth. Examples of debris include non-operational satellites, rocket bodies, and fragments generated from explosions, collisions, or faulty payload assembly.

Loading next visibility...
Identifier
40200, 2012-008K
Orbit
HEO
Country
Flag of CNCN / PRC
Related business
Manufacturer
CALT
Mission
Spacecraft
Bus & Motor
Unknown
Mass
Unknown
Launch date (UTC)
2012-02-24 (14 years ago)
Launch vehicle
Unknown
Launch site
Xichang Space Center, China (XSC)
Object type
Payload
Rocket body
Debris
Shape & HBR
Unknown shape, 0.1 m
Radar Cross Section
Medium (>0.1 m² and <1 m²)

Expand to show TLE details & history
Last TLE update: 3 days ago

TLE from 3 days ago
0 CZ-3C DEB
1 40200U 12008K   26170.54906597 -.00000154  00000-0  00000-0 0  9999
2 40200  20.8071 254.7838 6969367 133.0535 311.5813  2.19222046 98770
Epoch: 2026-06-19T13:10Z
TLE epoch observation values (Epoch: 2026-06-19T13:10:39.299Z)
Latitude
0.00001°
Longitude
149.40006°
Altitude
18,188.691 km
Speed
4.065 km/s
True Right ascension
16h 59m 21s
True Declination
0° 00' 00"
Sunlit
Object was in daylight at epoch
Visualization orbit readout
Latitude
Unknown
Longitude
Unknown
Altitude
Unknown
Speed
Unknown
Apparent Right ascension
Unknown
Apparent Declination
Unknown
Sunlit
N/A
Visualization observer readout
Local Sidereal Time
21:38:51
Azimuth
Unknown
Elevation
Unknown
Doppler factor
Unknown
Orbital elements
Apogee altitude
36,104.556 km
Perigee altitude
1,209.032 km
Semi-major axis
25,034.931 km
Eccentricity
0.69694
Inclination
20.8071°
RAAN
254.7838°
Arg. of periapsis
133.0535°
True anomaly
227.02575°
Mean anomaly
311.5813°
Eccentric anomaly
271.66666°
Mean motion
0.54793 °/min
Orbital period
657.02 mins
BSTAR
0
Loading maneuver chart data...
Computing Atmospheric mass density...
Loading historical data...
Loading historical data...
Loading historical data...
Loading historical data...
Loading historical data...
Loading historical data...
Loading historical data...

Documentation

Showing up to 5 results
|